metlocid,date_time,avg_rh,std_rh,min_rh,max_rh,n_rh,n_comments
VAAM,11/1/94,41.51920356,10.13934063,20.5,61.11,452,0
VAAM,12/1/94,36.73964484,15.39260513,19.1,99.99,2168,4
VAAM,1/1/95,40.61970381,13.36103161,20.1,78.74,743,0
VAAM,2/1/95,42.44313987,20.03307999,21.12,97.08,672,0
VAAM,3/1/95,73.79915325,15.89513907,30,96.93,744,0
VAAM,4/1/95,72.24412499,15.89719065,30.02,91.48,720,0
VAAM,5/1/95,66.99197588,18.16759638,27.74,86.54,744,0
VAAM,6/1/95,55.76870833,20.05513179,25.18,82.23,720,0
VAAM,7/1/95,57.26961033,16.68574006,26.67,85.74,744,0
VAAM,8/1/95,56.05954298,17.96564898,27.09,78.78,744,0
VAAM,9/1/95,59.91611107,16.53057271,26.83,83.9,720,0
VAAM,10/1/95,54.07555112,16.94304277,25.5,93.13,744,0
VAAM,11/1/95,26.9073044,8.243903398,19.4,70.76,1406,0
VAAM,12/1/95,33.91064851,14.46331606,17.74,90.49,2976,0
VAAM,1/1/96,36.77332436,14.08767456,19.1,98.92,2972,0
VAAM,2/1/96,36.93232755,13.79275419,18.9,99.99,2784,3
VAAM,3/1/96,59.37813511,23.64781019,20.8,95.11,2976,0
VAAM,4/1/96,58.90750693,25.41322124,22.15,92.62,2880,0
VAAM,5/1/96,75.91490926,10.31280254,28.42,89.16,2976,0
VAAM,6/1/96,65.79066315,18.01222858,25.59,83.29,2880,0
VAAM,7/1/96,47.53961357,13.21681908,26.05,70,2976,0
VAAM,8/1/96,58.968377,22.38669998,21.1,82.67,2976,0
VAAM,9/1/96,68.70792706,17.00577075,28.85,86.23,2880,0
VAAM,10/1/96,48.42727489,16.59065699,25.05,82.9,2976,0
VAAM,11/1/96,35.48541507,12.46350531,18.6,79.03,2879,0
VAAM,12/1/96,38.26380378,10.58553486,20.4,79.09,2976,0
VAAM,1/1/97,47.0360584,12.72791779,21.5,77.52,2976,0
VAAM,2/1/97,46.80088171,14.68535426,22.4,85.72,2688,0
VAAM,3/1/97,69.93102143,18.51522973,29.38,89.66,2976,0
VAAM,4/1/97,75.34400689,15.05660751,31.01,92.32,2880,0
VAAM,5/1/97,63.25052755,22.19466249,26.9,87.79,2976,0
VAAM,6/1/97,59.86573615,22.202728,27.6,89.41,2880,0
VAAM,7/1/97,67.81476823,13.33548933,31.93,87.02,2976,0
VAAM,8/1/97,62.1431855,15.91137563,29.14,82.99,2976,0
VAAM,9/1/97,66.62667707,17.94407916,28.02,88.79,2880,0
VAAM,10/1/97,56.36465199,19.77238163,23.8,91.4,2730,0
VAAM,11/1/97,43.81316891,14.4437206,21.5,83.99,811,0
VAAM,12/1/97,47.6632762,11.84737097,20.4,78,2976,0
VAAM,1/1/98,50.30188571,14.43734123,20.9,93.44,2975,0
VAAM,2/1/98,51.35621652,19.41256896,24,99.99,2688,5
VAAM,3/1/98,72.86736562,11.96745604,33.19,86.71,2976,0
VAAM,4/1/98,71.83569446,15.98224159,25.53,86.05,2880,0
VAAM,5/1/98,69.05518146,16.55114647,26.87,87.72,2976,0
VAAM,6/1/98,66.87776041,20.87347234,27.21,93.32,2880,0
VAAM,7/1/98,68.61590056,18.3315254,29.12,91.01,2976,0
VAAM,8/1/98,68.52599124,16.08080388,23.92,81.07,2976,0
VAAM,9/1/98,72.68812157,8.875409216,26.19,82.52,2880,0
VAAM,10/1/98,53.57484884,18.23831245,24.91,85.38,2976,0
VAAM,11/1/98,37.43218748,10.61925529,21.1,65.02,2880,0
VAAM,12/1/98,37.38612567,11.05232948,20,62.92,2976,0
VAAM,1/1/99,43.1323899,12.88273836,20.9,72.9,2975,0
VAAM,2/1/99,52.06924101,18.76240976,22.63,92.47,2688,0
VAAM,3/1/99,81.47215734,7.330133555,30.09,92.47,2948,0
VAAM,4/1/99,78.03029861,7.803780808,39.58,86.81,2880,0
VAAM,5/1/99,67.21603491,13.49860822,28.19,82.64,2976,0
VAAM,6/1/99,73.91928476,18.37381103,27.1,90.97,2880,0
VAAM,7/1/99,62.38106857,20.35539039,26.49,88.31,2976,0
VAAM,8/1/99,64.14944218,14.99466146,27.38,84.57,2976,0
VAAM,9/1/99,68.06920835,19.63124089,24.44,86.39,2880,0
VAAM,10/1/99,44.11981856,17.47238662,22.29,89.58,2976,0
VAAM,11/1/99,33.95099652,10.60783939,20.7,68.66,2880,0
VAAM,12/1/99,35.30648518,10.98797757,20.1,80.98,2976,0
VAAM,1/1/00,38.89332659,13.34914718,19.5,86.06,2973,1
VAAM,2/1/00,41.2095582,16.43115674,10.61,86.39,2784,0
VAAM,3/1/00,76.25862205,24.48697498,20.13,99.99,2976,330
VAAM,4/1/00,86.90720135,17.91968939,21.56,99.99,2880,118
VAAM,5/1/00,80.34633066,21.58441531,19.6,99.99,2976,32
VAAM,6/1/00,74.90002427,20.524984,20.15,99.99,2880,8
VAAM,7/1/00,59.01163978,28.09927686,11.24,99.99,2976,1
VAAM,8/1/00,61.88993618,26.75384832,13.69,99.99,2976,9
VAAM,9/1/00,55.91905206,28.85991108,9.13,99.16,2880,0
VAAM,10/1/00,60.0077386,23.57968077,15.96,99.99,2976,4
VAAM,11/1/00,39.83538539,16.88035035,11.99,89.76,2880,0
VAAM,12/1/00,44.39707996,14.39689411,15.3,79.37,2976,0
VAAM,1/1/01,44.8172917,17.21202785,13.4,82.66,2976,0
VAAM,2/1/01,45.21609,20.44626935,12.07,98.78,2688,0
VAAM,3/1/01,72.53136413,25.3676001,13.84,99.99,2976,117
VAAM,4/1/01,77.51334837,25.95097306,20.16,99.99,2852,154
VAAM,5/1/01,65.24294689,28.82173459,13,99.99,2976,9
VAAM,6/1/01,68.14618751,26.95153896,16.83,99.99,2880,4
VAAM,7/1/01,70.14256385,25.31971706,15.78,99.51,2976,0
VAAM,8/1/01,80.49809483,13.6543126,14.47,99.3,2976,0
VAAM,9/1/01,78.00502773,21.01713374,15.76,99.99,2880,23
VAAM,10/1/01,51.22159272,25.56050233,13.49,99.99,2976,4
VAAM,11/1/01,35.06398888,12.57013332,12,76.03,2878,1
VAAM,12/1/01,32.40703289,11.96541832,12.8,96.92,2976,0
VAAM,1/1/02,42.7649765,17.83334967,11.3,93.33,2976,0
VAAM,2/1/02,46.53294642,17.79028536,13.41,99.23,2688,0
VAAM,3/1/02,64.73150872,25.42864808,15.09,99.99,2976,88
VAAM,4/1/02,79.36271524,22.69730962,21.65,99.99,2880,5
VAAM,5/1/02,71.8983098,25.94205214,19.37,99.99,2976,92
VAAM,6/1/02,74.78525001,23.96020254,14.28,99.99,2880,7
VAAM,7/1/02,62.86136761,26.34705205,13.35,99.99,2976,2
VAAM,8/1/02,73.53028559,20.53366773,25.39,99.99,2976,22
VAAM,9/1/02,80.72028468,21.31641695,15.12,99.99,2880,39
VAAM,10/1/02,79.50597417,24.7991945,17.4,99.99,2976,429
VAAM,11/1/02,51.27863198,19.89238993,14.14,96.68,2880,0
VAAM,12/1/02,41.62651543,15.9361519,14.4,81.46,2976,0
VAAM,1/1/03,47.54956653,15.6104556,14,82.64,2976,0
VAAM,2/1/03,53.07975074,18.88615801,16.65,95.99,2688,0
VAAM,3/1/03,77.5429838,23.93288052,20.98,99.99,2976,129
VAAM,4/1/03,86.69092351,14.76399413,24.37,99.99,2880,106
VAAM,5/1/03,56.66104841,27.30028057,16,97.39,2976,0
VAAM,6/1/03,86.12506239,18.49884973,18.55,99.99,2880,92
VAAM,7/1/03,61.96114247,26.44694277,18.03,96.66,2976,0
VAAM,8/1/03,77.15263446,21.11561424,15.31,99.99,2976,6
VAAM,9/1/03,75.52868998,22.66979424,16.32,99.99,855,2035
VAAM,10/1/03,,,,,0,2976
VAAM,11/1/03,,,,,0,2880
VAAM,12/1/03,41.20762854,17.73644474,14.6,98.94,2256,719
VAAM,1/1/04,46.06780911,15.37225864,15.2,87.52,2976,0
VAAM,2/1/04,55.11437869,26.09231366,14.23,99.97,2784,147
VAAM,3/1/04,93.57100507,9.603373733,25.15,99.98,2976,739
VAAM,4/1/04,85.07584041,19.13218485,21.85,99.96,2880,91
VAAM,5/1/04,75.30845096,22.9156966,23.6,99.95,2976,74
VAAM,6/1/04,62.85166321,30.31266635,15.91,99.94,2880,53
VAAM,7/1/04,69.6728125,22.9487653,12.63,92.67,2976,0
VAAM,8/1/04,55.81159947,30.1289524,10.22,99.81,2976,0
VAAM,9/1/04,78.74480559,24.05919982,13.67,99.94,2880,9
VAAM,10/1/04,61.81572246,22.82943422,11.5,99.96,2976,2
VAAM,11/1/04,37.40719788,15.18089993,9.99,86.4,2880,0
VAAM,12/1/04,45.76846048,16.64173433,13,90.24,2975,1
VAAM,1/1/05,46.12468749,14.79538073,13.82,81.75,2976,0
VAAM,2/1/05,58.83896953,24.41475028,13.8,99.96,2688,49
VAAM,3/1/05,88.8985047,13.75140142,24.08,99.98,2976,143
VAAM,4/1/05,91.07879877,12.94279986,24.73,99.98,2880,391
VAAM,5/1/05,71.92635098,27.10054297,19.21,99.98,2976,326
VAAM,6/1/05,70.33339589,26.76978771,20.1,99.9,2880,75
VAAM,7/1/05,76.38696914,22.8670057,16.87,99.98,2976,41
VAAM,8/1/05,71.90706992,24.37153399,16.74,98.75,2976,0
VAAM,9/1/05,69.96666322,25.57559386,13.05,99.9,2880,4
VAAM,10/1/05,50.9698488,23.12100681,15.38,99.9,2976,5
VAAM,11/1/05,39.42517018,15.95365168,11.67,89.29,2880,0
VAAM,12/1/05,42.81867944,16.08125112,13.17,92.43,2976,0
VAAM,1/1/06,44.87418682,15.76320288,13,86.9,2976,0
VAAM,2/1/06,49.94218385,25.94453535,11.1,99.98,2688,91
VAAM,3/1/06,75.93013447,23.41348824,20.39,99.9,2976,11
VAAM,4/1/06,79.918809,15.09015012,22.37,99.9,2880,3
VAAM,5/1/06,73.11527222,21.34985901,11.75,97.99,2976,0
VAAM,6/1/06,66.43906597,25.10273959,21.14,99.9,2880,5
VAAM,7/1/06,68.88652218,20.80387397,12.68,92.21,2976,0
VAAM,8/1/06,70.23421375,27.60315711,16.12,99.9,2976,6
VAAM,9/1/06,75.61757988,24.57724186,19.04,99.95,2880,43
VAAM,10/1/06,72.80857187,21.20381237,22.58,99.97,2976,13
VAAM,11/1/06,46.56632292,19.56310181,12.82,99.9,2880,12
VAAM,12/1/06,40.3250269,14.6158507,12.49,79.02,2976,0
VAAM,1/1/07,35.75466062,12.92822589,10.32,88.46,2976,0
VAAM,2/1/07,55.77014135,23.01347286,13.12,99.99,2688,48
VAAM,3/1/07,70.29987228,23.373817,14.03,99.29,2976,0
VAAM,4/1/07,72.30220478,24.38048516,17.06,95.52,2880,0
VAAM,5/1/07,71.35790661,27.1446096,12.09,99.99,2976,7
VAAM,6/1/07,65.06182982,26.47793561,18.82,99.99,2880,3
VAAM,7/1/07,63.22511426,25.12148543,12.69,95.73,2976,0
VAAM,8/1/07,67.60839042,23.53523185,13.43,93.94,2976,0
VAAM,9/1/07,65.86603133,26.69194771,12.18,95.96,2880,0
VAAM,10/1/07,56.5782359,25.06960683,12.73,99.99,2976,3
VAAM,11/1/07,43.56128472,15.81557529,15.05,91.75,2880,0
VAAM,12/1/07,39.3088676,16.83836294,10.31,85.8,2976,0
VAAM,1/1/08,39.81565523,14.63338558,12.14,83.97,2976,0
VAAM,2/1/08,49.44920614,17.14985038,14.55,91.31,2784,0
VAAM,3/1/08,73.25257728,25.43585783,18.88,99.99,2976,43
VAAM,4/1/08,77.18031944,23.33922687,16.56,99.99,2880,13
VAAM,5/1/08,74.37770161,21.62772039,17.41,99.99,2976,2
VAAM,6/1/08,70.7764618,26.55102266,16.36,99.33,2880,0
VAAM,7/1/08,69.01037639,23.87651564,13.14,96.71,2976,0
VAAM,8/1/08,64.12852488,22.80276996,11.19,91.7,2976,0
VAAM,9/1/08,48.99360765,24.54389614,13.14,95.73,2880,0
VAAM,10/1/08,65.48544022,21.41950997,16.06,98.71,2976,0
VAAM,11/1/08,36.62068747,15.35652154,11.65,88.15,2880,0
VAAM,12/1/08,32.96217554,12.903224,12.2,78.73,2974,0
VAAM,1/1/09,44.96622649,15.16169741,13.85,96.87,2976,0
VAAM,2/1/09,54.11651412,17.95200295,12.68,99.99,2688,1
VAAM,3/1/09,77.85285283,21.68636295,16.75,99.99,2976,3
VAAM,4/1/09,73.00130206,26.20962876,13.29,99.99,2880,18
VAAM,5/1/09,72.49789988,22.95428498,16.67,99.99,2976,1
VAAM,6/1/09,70.195441,22.30925064,17.41,99.03,2880,0
VAAM,7/1/09,62.90180782,26.27501495,13.2,94.01,2976,0
VAAM,8/1/09,71.20739583,23.16464132,16.86,96.32,2976,0
VAAM,9/1/09,58.15229519,27.11698839,8.49,96.88,2880,0
VAAM,10/1/09,61.28434136,23.38237543,12.52,96.89,2976,0
VAAM,11/1/09,37.18090629,16.27696459,10.11,86.8,2880,0
VAAM,12/1/09,40.91246644,14.76670195,13.6,89.8,2976,0
VAAM,1/1/10,44.40665325,14.02299467,10,84.7,2976,0
VAAM,2/1/10,62.6959449,24.12526085,18.7,100,2688,27
VAAM,3/1/10,81.22301745,15.56904096,19.8,100,2976,86
VAAM,4/1/10,81.95975695,18.49299039,17.5,100,2880,4
VAAM,5/1/10,82.84381721,15.31904348,21.1,99.5,2976,0
VAAM,6/1/10,75.46163194,20.22611042,18.1,100,2880,2
VAAM,7/1/10,63.83568553,22.68436071,13.4,98.8,2976,0
VAAM,8/1/10,66.33353504,27.49901913,12.2,99.1,2976,0
VAAM,9/1/10,78.62215274,20.66773164,18.3,100,2880,1
VAAM,10/1/10,52.29452277,24.12005528,12.5,100,2976,7
VAAM,11/1/10,31.53934029,11.70990284,11.2,75.4,2880,0
VAAM,12/1/10,37.35823251,14.45022097,10.7,81.7,2976,0
VAAM,1/1/11,53.09519486,18.30265058,13.2,100,2976,1
VAAM,2/1/11,54.04698658,18.69619623,17.5,100,2688,23
VAAM,3/1/11,80.44338038,21.79610675,24.7,100,2976,23
VAAM,4/1/11,75.87513889,24.67396672,20.9,100,2880,3
VAAM,5/1/11,74.83719758,22.24966108,19.5,97.1,2976,0
VAAM,6/1/11,70.01118058,26.59079723,18.1,100,2880,54
VAAM,7/1/11,67.12977151,26.44862582,15.4,99.4,2976,0
VAAM,8/1/11,66.71918682,25.31880926,15.6,100,2976,7
VAAM,9/1/11,66.77822915,26.31692437,14.9,100,2880,47
VAAM,10/1/11,52.88491264,25.04891359,15.5,100,2976,11
VAAM,11/1/11,36.60986108,15.28620073,9.8,88.3,2880,0
VAAM,12/1/11,45.84127579,14.80790297,12.3,92.6,1599,0
VAAM,1/1/12,44.79205384,14.96553116,14.35,90.2,2449,0
VAAM,2/1/12,46.7865661,19.55009629,12.46,98.96,2784,0
VAAM,3/1/12,63.27347112,27.07388166,14.12,100,2976,49
VAAM,4/1/12,81.44883675,22.60560103,20.56,100,2880,97
VAAM,5/1/12,62.67888102,29.69085568,16.36,100,2976,4
VAAM,6/1/12,69.45200694,26.09894137,13.76,100,2880,1
VAAM,7/1/12,73.11607866,21.36805053,17.63,99.75,2976,0
VAAM,8/1/12,62.9471035,29.29677977,10.23,100,2976,31
VAAM,9/1/12,76.3648854,21.76887254,24.53,100,2880,5
VAAM,10/1/12,54.56528224,22.18633617,17.26,97.43,2976,0
VAAM,11/1/12,38.64357759,14.9043396,1.82,87.33,2538,342
VAAM,12/1/12,35.07854871,14.01780309,14.04,90.48,503,2473
VAAM,1/1/13,47.8104167,17.51898462,12.32,100,2976,1
VAAM,2/1/13,51.63373509,18.05413757,15.32,95.92,2688,0
VAAM,3/1/13,74.02162302,20.82192779,19.66,99.17,2976,0
VAAM,4/1/13,81.23233683,14.84694023,18.2,95.39,2880,0
VAAM,5/1/13,74.49173402,26.13918508,17.45,100,2918,2
VAAM,6/1/13,79.5175383,19.40547412,21.71,99.13,2880,0
VAAM,7/1/13,77.16334006,18.02123378,20.92,97.73,2976,0
VAAM,8/1/13,65.66739586,26.05366181,9.44,94.74,2976,0
VAAM,9/1/13,70.49820386,27.95478713,13.5,100,2678,12
VAAM,10/1/13,68.54093082,26.14407156,19.93,100,2976,88
VAAM,11/1/13,40.5165104,18.54807121,8.34,97.85,2880,0
VAAM,12/1/13,38.08676076,13.43106626,13.78,81.38,2976,0
VAAM,1/1/14,41.7640121,15.5336691,10.51,85.46,2976,0
VAAM,2/1/14,46.5081064,17.5266472,13.54,93.64,2688,0
VAAM,3/1/14,70.20652894,25.64934481,13.41,100,2976,1
VAAM,4/1/14,65.13359375,28.83666361,11.01,100,2880,33
VAAM,5/1/14,73.68477485,26.05953958,16.89,100,2976,141
VAAM,6/1/14,72.6147882,23.61345561,18.16,98.26,2880,0
VAAM,7/1/14,73.53078289,18.41367639,18.93,95.24,2976,0
VAAM,8/1/14,61.52970433,28.59382514,16.83,100,2976,1
VAAM,9/1/14,61.52294099,28.31217191,16.66,100,2880,43
VAAM,10/1/14,56.7863575,29.27927189,10.45,100,2976,331
VAAM,11/1/14,47.16112851,17.71736935,13.61,98.59,2880,0
VAAM,12/1/14,43.24381512,14.19367162,14.16,86.68,2975,0
VAAM,1/1/15,48.34847782,18.46030377,13.77,95.42,2976,0
VAAM,2/1/15,49.22388017,19.63646616,13.74,100,2688,5
VAAM,3/1/15,77.51461688,20.05110459,17.21,99.7,2976,0
VAAM,4/1/15,81.21321186,19.52649129,20.44,98.69,2880,0
VAAM,5/1/15,80.22987572,18.54773146,19.49,100,2976,4
VAAM,6/1/15,70.98803122,22.70568887,15.47,94.75,2880,0
VAAM,7/1/15,71.83508741,23.03492506,14.2,97.51,2976,0
VAAM,8/1/15,66.38431452,27.02518458,15.42,98.59,2976,0
VAAM,9/1/15,66.35410416,25.59044178,12.96,99.39,2880,0
VAAM,10/1/15,50.0582828,24.28386681,14.34,97.66,2242,0
VAAM,12/1/15,41.53757023,16.72378108,14.31,89.73,2918,0
VAAM,1/1/16,43.52825697,15.50022136,16.2,76.84,1354,0
VAAM,2/1/16,53.88036808,19.82850497,14.48,100,2309,6
VAAM,3/1/16,81.31369283,19.37366153,26.61,100,2976,219
VAAM,4/1/16,91.12889444,3.664623695,87.04,100,1185,30
VAAM,5/1/16,68.41399004,28.7868674,13.58,100,2213,2
VAAM,6/1/16,81.03820489,17.59225119,22.7,100,2880,26
VAAM,7/1/16,78.42673414,16.99483387,15.43,93.51,2817,0
VAAM,8/1/16,75.92841997,24.22828013,9.53,100,2943,65
VAAM,9/1/16,78.79889584,22.06030869,17.52,99.67,2880,0
VAAM,10/1/16,63.06716739,21.50481838,15.78,100,2976,15
VAAM,11/1/16,38.77073961,16.52629614,10.73,93.7,2880,0
VAAM,12/1/16,34.83725983,14.35151472,9.56,85.77,2967,0
VAAM,1/1/17,42.94907257,16.25368849,12.6,91.47,2976,0
VAAM,2/1/17,39.76741075,16.1750092,13.71,96.33,2688,0
VAAM,3/1/17,85.3059845,21.32670621,21.21,100,2976,353
VAAM,4/1/17,78.00466669,19.93746919,16.39,99.49,2880,0
VAAM,5/1/17,66.25037634,29.996723,11.83,100,2976,47
VAAM,6/1/17,74.12236458,23.30625075,17.58,100,2880,87
VAAM,7/1/17,68.70614918,25.36992798,16,97.41,2976,0
VAAM,8/1/17,66.64023861,26.08537021,10.91,100,2976,91
VAAM,9/1/17,73.58745829,22.95380337,16.23,100,2880,3
VAAM,10/1/17,62.93225799,25.64523945,18.03,100,2976,84
VAAM,11/1/17,44.87296181,18.76764036,13.94,92.58,2880,0
VAAM,12/1/17,43.85743164,15.50300932,13.28,89.51,2963,0
VAAM,1/1/18,44.78314181,17.83631344,12.74,99.71,2976,0
VAAM,2/1/18,51.49819938,21.68782502,12.29,100,2688,32
VAAM,3/1/18,77.30048053,24.46921031,18.34,100,2976,381
VAAM,4/1/18,71.10437846,28.09557737,13.9,98.6,2880,0
VAAM,5/1/18,80.27804098,21.00866616,16.71,100,2976,1
VAAM,6/1/18,70.05067364,28.49145681,15.37,100,2880,233
VAAM,7/1/18,64.96123323,27.93424689,13.32,100,2976,16
VAAM,8/1/18,72.83685482,23.16794886,12.25,100,2976,51
VAAM,9/1/18,66.66549999,27.78102339,11.24,99.27,2880,0
VAAM,10/1/18,50.0235484,24.93670546,15.46,100,2976,15
VAAM,11/1/18,39.65496525,19.37852291,10.31,96.09,2880,0
VAAM,12/1/18,36.00402825,16.47483907,10.1,95.85,2974,0
VAAM,1/1/19,48.36734208,15.56402718,12.69,90.23,2976,0
VAAM,2/1/19,49.56858258,18.46527614,12.38,90.02,2688,0
VAAM,3/1/19,71.61838039,23.73817225,18.19,100,2976,18
VAAM,4/1/19,75.51853479,25.81024895,19.65,100,2880,102
VAAM,5/1/19,78.52263778,28.80728997,16.34,100,2976,563
VAAM,6/1/19,65.49541666,27.50940236,18.05,100,2880,126
VAAM,7/1/19,71.89339712,29.96126002,12.59,100,2976,205
VAAM,8/1/19,69.56578633,30.13809758,11.25,100,2976,56
VAAM,9/1/19,65.0381493,28.90648321,15.53,100,2880,11
VAAM,10/1/19,53.6429872,22.46887558,9.74,97.8,2976,0
VAAM,11/1/19,40.90319099,19.14319686,11.27,91.22,2880,0
VAAM,12/1/19,44.23356106,17.25559921,14,92.58,2971,529
VAAM,1/1/20,48.09369628,16.3510324,13.59,100,2976,2976
VAAM,2/1/20,59.12050285,22.10289421,12.65,100,2784,2784
VAAM,3/1/20,74.86690522,22.72400756,21.75,100,2976,2976
VAAM,4/1/20,70.86895487,26.18909916,12.87,100,2880,2880
VAAM,5/1/20,81.70994959,18.69297482,15.57,100,2976,2976
VAAM,6/1/20,66.41482986,27.6620213,14.6,100,2880,2880
VAAM,7/1/20,68.674086,29.10336029,15.76,100,2976,2976
VAAM,8/1/20,75.25021838,26.62198321,17.21,100,2976,2976
VAAM,9/1/20,74.76425345,24.01474669,18.15,100,2880,2880
VAAM,10/1/20,50.89318885,25.60926074,11.89,100,2976,2976
VAAM,11/1/20,37.57270487,18.0751791,11.37,87.16,2880,2880
VAAM,12/1/20,32.59118618,12.12022628,11.51,88.61,2976,2976
VAAM,1/1/21,39.53717068,16.33135789,10.45,96.29,2976,2976
VAAM,2/1/21,57.86344116,23.91460367,13.13,100,2688,2688
VAAM,3/1/21,82.25346771,22.58887191,20.63,100,2976,2976
VAAM,4/1/21,86.63205902,13.4293278,21.66,100,2880,2880
VAAM,5/1/21,76.25698593,24.01531209,19.8,100,2976,2976
VAAM,6/1/21,66.86229164,29.54307484,13.23,100,2880,2880
VAAM,7/1/21,75.66739581,26.41416003,15.77,100,2976,2976
VAAM,8/1/21,69.50673389,25.98812761,10.12,99.49,2976,2976
VAAM,9/1/21,67.56375697,30.05299797,13.7,100,2880,2880
VAAM,10/1/21,41.35373321,20.55488999,13.87,100,2976,2976
VAAM,11/1/21,39.39705208,17.71181492,8.94,98.24,2880,2880
VAAM,12/1/21,33.44580646,14.11041111,9.49,88.83,2976,2976
VAAM,1/1/22,40.11380213,14.77747877,11.52,88.57,2972,2972
VAAM,2/1/22,49.38203494,18.31626674,14.85,94.09,2688,2688
VAAM,3/1/22,64.75897848,26.61583871,12.4,100,2976,2976
VAAM,4/1/22,84.01360066,19.6363259,20.64,100,2880,2880
VAAM,5/1/22,66.47681448,28.98178599,15.46,100,2976,2976
VAAM,6/1/22,75.52652426,25.54808582,19.2,100,2880,2880
VAAM,7/1/22,53.08470766,29.88663093,11.25,100,2976,2976
VAAM,8/1/22,67.10540319,27.39006495,17.87,99.16,2976,2976
VAAM,9/1/22,69.86774999,27.79907855,16.26,100,2880,2880
VAAM,10/1/22,47.64530238,23.22959714,12.99,100,2976,2976
VAAM,11/1/22,46.54742015,19.01025929,10.39,90.54,2880,2880
VAAM,12/1/22,37.62494983,14.85511157,13.8,77.65,1196,1196